Year,Month,Day,Hour,Minute,Value (Times are PST for temperature in C)
2010,04,09,00,00,3.30
2010,04,09,00,01,3.30
2010,04,09,00,02,3.30
2010,04,09,00,03,3.30
2010,04,09,00,04,3.30
2010,04,09,00,05,3.30
2010,04,09,00,06,3.30
2010,04,09,00,07,3.30
2010,04,09,00,08,3.30
2010,04,09,00,09,3.30
2010,04,09,00,10,3.30
2010,04,09,00,11,3.30
2010,04,09,00,12,3.30
2010,04,09,00,13,3.30
2010,04,09,00,14,3.30
2010,04,09,00,15,3.30
2010,04,09,00,16,3.30
2010,04,09,00,17,3.30
2010,04,09,00,18,3.30
2010,04,09,00,19,3.30
2010,04,09,00,20,3.30
2010,04,09,00,21,3.30
2010,04,09,00,22,3.40
2010,04,09,00,23,3.40
2010,04,09,00,24,3.30
2010,04,09,00,25,3.30
2010,04,09,00,26,3.30
2010,04,09,00,27,3.30
2010,04,09,00,28,3.30
2010,04,09,00,29,3.30
2010,04,09,00,30,3.30
2010,04,09,00,31,3.30
2010,04,09,00,32,3.30
2010,04,09,00,33,3.30
2010,04,09,00,34,3.30
2010,04,09,00,35,3.30
2010,04,09,00,36,3.20
2010,04,09,00,37,3.20
2010,04,09,00,38,3.20
2010,04,09,00,39,3.20
2010,04,09,00,40,3.30
2010,04,09,00,41,3.30
2010,04,09,00,42,3.30
2010,04,09,00,43,3.30
2010,04,09,00,44,3.30
2010,04,09,00,45,3.30
2010,04,09,00,46,3.30
2010,04,09,00,47,3.30
2010,04,09,00,48,3.30
2010,04,09,00,49,3.30
2010,04,09,00,50,3.40
2010,04,09,00,51,3.40
2010,04,09,00,52,3.30
2010,04,09,00,53,3.30
2010,04,09,00,54,3.30
2010,04,09,00,55,3.30
2010,04,09,00,56,3.30
2010,04,09,00,57,3.30
2010,04,09,00,58,3.30
2010,04,09,00,59,3.40
2010,04,09,01,00,3.40
2010,04,09,01,01,3.40
2010,04,09,01,02,3.40
2010,04,09,01,03,3.40
2010,04,09,01,04,3.40
2010,04,09,01,05,3.50
2010,04,09,01,06,3.50
2010,04,09,01,07,3.50
2010,04,09,01,08,3.50
2010,04,09,01,09,3.60
2010,04,09,01,10,3.60
2010,04,09,01,11,3.60
2010,04,09,01,12,3.60
2010,04,09,01,13,3.60
2010,04,09,01,14,3.60
2010,04,09,01,15,3.60
2010,04,09,01,16,3.60
2010,04,09,01,17,3.70
2010,04,09,01,18,3.70
2010,04,09,01,19,3.60
2010,04,09,01,20,3.60
2010,04,09,01,21,3.60
2010,04,09,01,22,3.60
2010,04,09,01,23,3.50
2010,04,09,01,24,3.50
2010,04,09,01,25,3.50
2010,04,09,01,26,3.50
2010,04,09,01,27,3.50
2010,04,09,01,28,3.50
2010,04,09,01,29,3.50
2010,04,09,01,30,3.50
2010,04,09,01,31,3.50
2010,04,09,01,32,3.40
2010,04,09,01,33,3.40
2010,04,09,01,34,3.40
2010,04,09,01,35,3.40
2010,04,09,01,36,3.30
2010,04,09,01,37,3.30
2010,04,09,01,38,3.30
2010,04,09,01,39,3.30
2010,04,09,01,40,3.30
2010,04,09,01,41,3.30
2010,04,09,01,42,3.20
2010,04,09,01,43,3.20
2010,04,09,01,44,3.20
2010,04,09,01,45,3.20
2010,04,09,01,46,3.20
2010,04,09,01,47,3.20
2010,04,09,01,48,3.20
2010,04,09,01,49,3.20
2010,04,09,01,50,3.20
2010,04,09,01,51,3.20
2010,04,09,01,52,3.20
2010,04,09,01,53,3.10
2010,04,09,01,54,3.10
2010,04,09,01,55,3.10
2010,04,09,01,56,3.10
2010,04,09,01,57,3.10
2010,04,09,01,58,3.10
2010,04,09,01,59,3.10
2010,04,09,02,00,3.10
2010,04,09,02,01,3.10
2010,04,09,02,02,3.10
2010,04,09,02,03,3.10
2010,04,09,02,04,3.10
2010,04,09,02,05,3.10
2010,04,09,02,06,3.10
2010,04,09,02,07,3.10
2010,04,09,02,08,3.10
2010,04,09,02,09,3.10
2010,04,09,02,10,3.10
2010,04,09,02,11,3.10
2010,04,09,02,12,3.10
2010,04,09,02,13,3.10
2010,04,09,02,14,3.10
2010,04,09,02,15,3.10
2010,04,09,02,16,3.10
2010,04,09,02,17,3.10
2010,04,09,02,18,3.10
2010,04,09,02,19,3.10
2010,04,09,02,20,3.10
2010,04,09,02,21,3.10
2010,04,09,02,22,3.00
2010,04,09,02,23,2.90
2010,04,09,02,24,3.00
2010,04,09,02,25,3.10
2010,04,09,02,26,3.10
2010,04,09,02,27,3.10
2010,04,09,02,28,3.10
2010,04,09,02,29,3.20
2010,04,09,02,30,3.20
2010,04,09,02,31,3.20
2010,04,09,02,32,3.20
2010,04,09,02,33,3.10
2010,04,09,02,34,3.10
2010,04,09,02,35,3.10
2010,04,09,02,36,3.10
2010,04,09,02,37,3.10
2010,04,09,02,38,3.10
2010,04,09,02,39,3.10
2010,04,09,02,40,3.00
2010,04,09,02,41,2.90
2010,04,09,02,42,2.90
2010,04,09,02,43,2.90
2010,04,09,02,44,2.90
2010,04,09,02,45,2.90
2010,04,09,02,46,2.90
2010,04,09,02,47,2.90
2010,04,09,02,48,2.90
2010,04,09,02,49,2.90
2010,04,09,02,50,2.90
2010,04,09,02,51,2.90
2010,04,09,02,52,2.90
2010,04,09,02,53,2.90
2010,04,09,02,54,2.90
2010,04,09,02,55,2.90
2010,04,09,02,56,2.90
2010,04,09,02,57,2.90
2010,04,09,02,58,2.90
2010,04,09,02,59,2.90
2010,04,09,03,00,2.90
2010,04,09,03,01,2.90
2010,04,09,03,02,2.80
2010,04,09,03,03,2.80
2010,04,09,03,04,2.80
2010,04,09,03,05,2.70
2010,04,09,03,06,2.70
2010,04,09,03,07,2.70
2010,04,09,03,08,2.70
2010,04,09,03,09,2.70
2010,04,09,03,10,2.70
2010,04,09,03,11,2.70
2010,04,09,03,12,2.70
2010,04,09,03,13,2.70
2010,04,09,03,14,2.70
2010,04,09,03,15,2.70
2010,04,09,03,16,2.70
2010,04,09,03,17,2.70
2010,04,09,03,18,2.70
2010,04,09,03,19,2.70
2010,04,09,03,20,2.70
2010,04,09,03,21,2.60
2010,04,09,03,22,2.60
2010,04,09,03,23,2.60
2010,04,09,03,24,2.60
2010,04,09,03,25,2.60
2010,04,09,03,26,2.60
2010,04,09,03,27,2.50
2010,04,09,03,28,2.50
2010,04,09,03,29,2.50
2010,04,09,03,30,2.50
2010,04,09,03,31,2.50
2010,04,09,03,32,2.50
2010,04,09,03,33,2.50
2010,04,09,03,34,2.50
2010,04,09,03,35,2.50
2010,04,09,03,36,2.50
2010,04,09,03,37,2.50
2010,04,09,03,38,2.50
2010,04,09,03,39,2.50
2010,04,09,03,40,2.50
2010,04,09,03,41,2.40
2010,04,09,03,42,2.40
2010,04,09,03,43,2.40
2010,04,09,03,44,2.40
2010,04,09,03,45,2.40
2010,04,09,03,46,2.30
2010,04,09,03,47,2.30
2010,04,09,03,48,2.30
2010,04,09,03,49,2.40
2010,04,09,03,50,2.40
2010,04,09,03,51,2.40
2010,04,09,03,52,2.40
2010,04,09,03,53,2.40
2010,04,09,03,54,2.40
2010,04,09,03,55,2.40
2010,04,09,03,56,2.40
2010,04,09,03,57,2.40
2010,04,09,03,58,2.40
2010,04,09,03,59,2.40
2010,04,09,04,00,2.40
2010,04,09,04,01,2.40
2010,04,09,04,02,2.40
2010,04,09,04,03,2.40
2010,04,09,04,04,2.40
2010,04,09,04,05,2.40
2010,04,09,04,06,2.40
2010,04,09,04,07,2.30
2010,04,09,04,08,2.30
2010,04,09,04,09,2.30
2010,04,09,04,10,2.30
2010,04,09,04,11,2.30
2010,04,09,04,12,2.20
2010,04,09,04,13,2.20
2010,04,09,04,14,2.20
2010,04,09,04,15,2.20
2010,04,09,04,16,2.20
2010,04,09,04,17,2.20
2010,04,09,04,18,2.20
2010,04,09,04,19,2.20
2010,04,09,04,20,2.30
2010,04,09,04,21,2.30
2010,04,09,04,22,2.30
2010,04,09,04,23,2.40
2010,04,09,04,24,2.40
2010,04,09,04,25,2.40
2010,04,09,04,26,2.40
2010,04,09,04,27,2.40
2010,04,09,04,28,2.40
2010,04,09,04,29,2.50
2010,04,09,04,30,2.50
2010,04,09,04,31,2.50
2010,04,09,04,32,2.50
2010,04,09,04,33,2.60
2010,04,09,04,34,2.60
2010,04,09,04,35,2.60
2010,04,09,04,36,2.60
2010,04,09,04,37,2.70
2010,04,09,04,38,2.70
2010,04,09,04,39,2.70
2010,04,09,04,40,2.60
2010,04,09,04,41,2.60
2010,04,09,04,42,2.60
2010,04,09,04,43,2.50
2010,04,09,04,44,2.50
2010,04,09,04,45,2.50
2010,04,09,04,46,2.40
2010,04,09,04,47,2.40
2010,04,09,04,48,2.40
2010,04,09,04,49,2.30
2010,04,09,04,50,2.30
2010,04,09,04,51,2.40
2010,04,09,04,52,2.40
2010,04,09,04,53,2.50
2010,04,09,04,54,2.50
2010,04,09,04,55,2.50
2010,04,09,04,56,2.50
2010,04,09,04,57,2.50
2010,04,09,04,58,2.60
2010,04,09,04,59,2.60
2010,04,09,05,00,2.60
2010,04,09,05,01,2.60
2010,04,09,05,02,2.50
2010,04,09,05,03,2.50
2010,04,09,05,04,2.50
2010,04,09,05,05,2.50
2010,04,09,05,06,2.50
2010,04,09,05,07,2.50
2010,04,09,05,08,2.50
2010,04,09,05,09,2.40
2010,04,09,05,10,2.40
2010,04,09,05,11,2.30
2010,04,09,05,12,2.30
2010,04,09,05,13,2.30
2010,04,09,05,14,2.20
2010,04,09,05,15,2.20
2010,04,09,05,16,2.20
2010,04,09,05,17,2.20
2010,04,09,05,18,2.20
2010,04,09,05,19,2.20
2010,04,09,05,20,2.20
2010,04,09,05,21,2.30
2010,04,09,05,22,2.30
2010,04,09,05,23,2.30
2010,04,09,05,24,2.40
2010,04,09,05,25,2.40
2010,04,09,05,26,2.40
2010,04,09,05,27,2.40
2010,04,09,05,28,2.40
2010,04,09,05,29,2.40
2010,04,09,05,30,2.30
2010,04,09,05,31,2.30
2010,04,09,05,32,2.30
2010,04,09,05,33,2.20
2010,04,09,05,34,2.20
2010,04,09,05,35,2.30
2010,04,09,05,36,2.30
2010,04,09,05,37,2.30
2010,04,09,05,38,2.40
2010,04,09,05,39,2.40
2010,04,09,05,40,2.40
2010,04,09,05,41,2.50
2010,04,09,05,42,2.50
2010,04,09,05,43,2.50
2010,04,09,05,44,2.50
2010,04,09,05,45,2.50
2010,04,09,05,46,2.50
2010,04,09,05,47,2.50
2010,04,09,05,48,2.50
2010,04,09,05,49,2.50
2010,04,09,05,50,2.50
2010,04,09,05,51,2.60
2010,04,09,05,52,2.70
2010,04,09,05,53,2.80
2010,04,09,05,54,2.80
2010,04,09,05,55,2.90
2010,04,09,05,56,2.90
2010,04,09,05,57,2.90
2010,04,09,05,58,2.90
2010,04,09,05,59,2.90
2010,04,09,06,00,2.80
2010,04,09,06,01,2.80
2010,04,09,06,02,2.80
2010,04,09,06,03,2.70
2010,04,09,06,04,2.70
2010,04,09,06,05,2.70
2010,04,09,06,06,2.60
2010,04,09,06,07,2.50
2010,04,09,06,08,2.50
2010,04,09,06,09,2.40
2010,04,09,06,10,2.40
2010,04,09,06,11,2.30
2010,04,09,06,12,2.30
2010,04,09,06,13,2.20
2010,04,09,06,14,2.20
2010,04,09,06,15,2.20
2010,04,09,06,16,2.20
2010,04,09,06,17,2.10
2010,04,09,06,18,2.10
2010,04,09,06,19,2.10
2010,04,09,06,20,2.00
2010,04,09,06,21,2.00
2010,04,09,06,22,2.00
2010,04,09,06,23,1.90
2010,04,09,06,24,1.90
2010,04,09,06,25,1.90
2010,04,09,06,26,1.80
2010,04,09,06,27,1.80
2010,04,09,06,28,1.80
2010,04,09,06,29,1.80
2010,04,09,06,30,1.80
2010,04,09,06,31,1.80
2010,04,09,06,32,1.80
2010,04,09,06,33,1.80
2010,04,09,06,34,1.80
2010,04,09,06,35,1.80
2010,04,09,06,36,1.70
2010,04,09,06,37,1.70
2010,04,09,06,38,1.70
2010,04,09,06,39,1.70
2010,04,09,06,40,1.60
2010,04,09,06,41,1.60
2010,04,09,06,42,1.60
2010,04,09,06,43,1.60
2010,04,09,06,44,1.60
2010,04,09,06,45,1.60
2010,04,09,06,46,1.60
2010,04,09,06,47,1.60
2010,04,09,06,48,1.60
2010,04,09,06,49,1.60
2010,04,09,06,50,1.60
2010,04,09,06,51,1.60
2010,04,09,06,52,1.60
2010,04,09,06,53,1.60
2010,04,09,06,54,1.60
2010,04,09,06,55,1.60
2010,04,09,06,56,1.60
2010,04,09,06,57,1.50
2010,04,09,06,58,1.50
2010,04,09,06,59,1.40
2010,04,09,07,00,1.40
2010,04,09,07,01,1.40
2010,04,09,07,02,1.40
2010,04,09,07,03,1.40
2010,04,09,07,04,1.40
2010,04,09,07,05,1.40
2010,04,09,07,06,1.40
2010,04,09,07,07,1.40
2010,04,09,07,08,1.40
2010,04,09,07,09,1.50
2010,04,09,07,10,1.50
2010,04,09,07,11,1.50
2010,04,09,07,12,1.50
2010,04,09,07,13,1.60
2010,04,09,07,14,1.70
2010,04,09,07,15,1.70
2010,04,09,07,16,1.80
2010,04,09,07,17,1.80
2010,04,09,07,18,1.80
2010,04,09,07,19,1.90
2010,04,09,07,20,1.90
2010,04,09,07,21,1.90
2010,04,09,07,22,2.00
2010,04,09,07,23,2.00
2010,04,09,07,24,2.00
2010,04,09,07,25,2.10
2010,04,09,07,26,2.10
2010,04,09,07,27,2.10
2010,04,09,07,28,2.20
2010,04,09,07,29,2.20
2010,04,09,07,30,2.30
2010,04,09,07,31,2.40
2010,04,09,07,32,2.50
2010,04,09,07,33,2.60
2010,04,09,07,34,2.60
2010,04,09,07,35,2.70
2010,04,09,07,36,2.70
2010,04,09,07,37,2.80
2010,04,09,07,38,2.90
2010,04,09,07,39,2.90
2010,04,09,07,40,2.90
2010,04,09,07,41,2.90
2010,04,09,07,42,3.00
2010,04,09,07,43,3.10
2010,04,09,07,44,3.00
2010,04,09,07,45,2.90
2010,04,09,07,46,2.90
2010,04,09,07,47,2.90
2010,04,09,07,48,2.90
2010,04,09,07,49,2.80
2010,04,09,07,50,2.80
2010,04,09,07,51,2.70
2010,04,09,07,52,2.70
2010,04,09,07,53,2.70
2010,04,09,07,54,2.70
2010,04,09,07,55,2.60
2010,04,09,07,56,2.60
2010,04,09,07,57,2.50
2010,04,09,07,58,2.50
2010,04,09,07,59,2.50
2010,04,09,08,00,2.50
2010,04,09,08,01,2.50
2010,04,09,08,02,2.50
2010,04,09,08,03,2.50
2010,04,09,08,04,2.60
2010,04,09,08,05,2.60
2010,04,09,08,06,2.60
2010,04,09,08,07,2.70
2010,04,09,08,08,2.70
2010,04,09,08,09,2.70
2010,04,09,08,10,2.70
2010,04,09,08,11,2.70
2010,04,09,08,12,2.70
2010,04,09,08,13,2.70
2010,04,09,08,14,2.70
2010,04,09,08,15,2.70
2010,04,09,08,16,2.70
2010,04,09,08,17,2.70
2010,04,09,08,18,2.70
2010,04,09,08,19,2.70
2010,04,09,08,20,2.70
2010,04,09,08,21,2.70
2010,04,09,08,22,2.70
2010,04,09,08,23,2.70
2010,04,09,08,24,2.70
2010,04,09,08,25,2.70
2010,04,09,08,26,2.80
2010,04,09,08,27,2.80
2010,04,09,08,28,2.80
2010,04,09,08,29,2.80
2010,04,09,08,30,2.90
2010,04,09,08,31,2.90
2010,04,09,08,32,2.90
2010,04,09,08,33,2.90
2010,04,09,08,34,2.90
2010,04,09,08,35,2.90
2010,04,09,08,36,2.90
2010,04,09,08,37,2.90
2010,04,09,08,38,2.90
2010,04,09,08,39,2.90
2010,04,09,08,40,2.90
2010,04,09,08,41,2.90
2010,04,09,08,42,2.90
2010,04,09,08,43,2.90
2010,04,09,08,44,2.90
2010,04,09,08,45,2.90
2010,04,09,08,46,2.90
2010,04,09,08,47,2.90
2010,04,09,08,48,2.90
2010,04,09,08,49,2.90
2010,04,09,08,50,2.90
2010,04,09,08,51,2.90
2010,04,09,08,52,2.90
2010,04,09,08,53,2.90
2010,04,09,08,54,2.90
2010,04,09,08,55,3.00
2010,04,09,08,56,3.10
2010,04,09,08,57,3.10
2010,04,09,08,58,3.10
2010,04,09,08,59,3.10
2010,04,09,09,00,3.10
2010,04,09,09,01,3.20
2010,04,09,09,02,3.20
2010,04,09,09,03,3.20
2010,04,09,09,04,3.20
2010,04,09,09,05,3.30
2010,04,09,09,06,3.30
2010,04,09,09,07,3.30
2010,04,09,09,08,3.30
2010,04,09,09,09,3.40
2010,04,09,09,10,3.40
2010,04,09,09,11,3.50
2010,04,09,09,12,3.50
2010,04,09,09,13,3.60
2010,04,09,09,14,3.60
2010,04,09,09,15,3.60
2010,04,09,09,16,3.70
2010,04,09,09,17,3.80
2010,04,09,09,18,3.80
2010,04,09,09,19,3.80
2010,04,09,09,20,3.80
2010,04,09,09,21,3.80
2010,04,09,09,22,3.80
2010,04,09,09,23,3.80
2010,04,09,09,24,3.80
2010,04,09,09,25,3.80
2010,04,09,09,26,3.80
2010,04,09,09,27,3.80
2010,04,09,09,28,3.80
2010,04,09,09,29,3.80
2010,04,09,09,30,3.80
2010,04,09,09,31,3.80
2010,04,09,09,32,3.90
2010,04,09,09,33,3.90
2010,04,09,09,34,4.00
2010,04,09,09,35,4.10
2010,04,09,09,36,4.20
2010,04,09,09,37,4.30
2010,04,09,09,38,4.40
2010,04,09,09,39,4.50
2010,04,09,09,40,4.60
2010,04,09,09,41,4.60
2010,04,09,09,42,4.60
2010,04,09,09,43,4.60
2010,04,09,09,44,4.50
2010,04,09,09,45,4.50
2010,04,09,09,46,4.50
2010,04,09,09,47,4.50
2010,04,09,09,48,4.50
2010,04,09,09,49,4.50
2010,04,09,09,50,4.50
2010,04,09,09,51,4.50
2010,04,09,09,52,4.50
2010,04,09,09,53,4.50
2010,04,09,09,54,4.60
2010,04,09,09,55,4.60
2010,04,09,09,56,4.70
2010,04,09,09,57,4.70
2010,04,09,09,58,4.70
2010,04,09,09,59,4.70
2010,04,09,10,00,4.80
2010,04,09,10,01,4.70
2010,04,09,10,02,4.70
2010,04,09,10,03,4.70
2010,04,09,10,04,4.70
2010,04,09,10,05,4.70
2010,04,09,10,06,4.70
2010,04,09,10,07,4.70
2010,04,09,10,08,4.80
2010,04,09,10,09,4.80
2010,04,09,10,10,4.80
2010,04,09,10,11,4.80
2010,04,09,10,12,4.80
2010,04,09,10,13,4.80
2010,04,09,10,14,4.90
2010,04,09,10,15,4.90
2010,04,09,10,16,5.00
2010,04,09,10,17,5.10
2010,04,09,10,18,5.20
2010,04,09,10,19,5.30
2010,04,09,10,20,5.30
2010,04,09,10,21,5.40
2010,04,09,10,22,5.50
2010,04,09,10,23,5.60
2010,04,09,10,24,5.70
2010,04,09,10,25,5.80
2010,04,09,10,26,5.90
2010,04,09,10,27,6.00
2010,04,09,10,28,5.90
2010,04,09,10,29,5.90
2010,04,09,10,30,5.80
2010,04,09,10,31,5.70
2010,04,09,10,32,5.70
2010,04,09,10,33,5.70
2010,04,09,10,34,5.60
2010,04,09,10,35,5.60
2010,04,09,10,36,5.50
2010,04,09,10,37,5.60
2010,04,09,10,38,5.70
2010,04,09,10,39,5.70
2010,04,09,10,40,5.80
2010,04,09,10,41,5.80
2010,04,09,10,42,5.80
2010,04,09,10,43,5.80
2010,04,09,10,44,5.90
2010,04,09,10,45,5.90
2010,04,09,10,46,5.90
2010,04,09,10,47,5.90
2010,04,09,10,48,6.00
2010,04,09,10,49,6.00
2010,04,09,10,50,6.10
2010,04,09,10,51,6.10
2010,04,09,10,52,6.10
2010,04,09,10,53,6.10
2010,04,09,10,54,6.20
2010,04,09,10,55,6.20
2010,04,09,10,56,6.10
2010,04,09,10,57,6.10
2010,04,09,10,58,6.10
2010,04,09,10,59,6.20
2010,04,09,11,00,6.20
2010,04,09,11,01,6.30
2010,04,09,11,02,6.40
2010,04,09,11,03,6.40
2010,04,09,11,04,6.40
2010,04,09,11,05,6.50
2010,04,09,11,06,6.60
2010,04,09,11,07,6.80
2010,04,09,11,08,6.90
2010,04,09,11,09,6.90
2010,04,09,11,10,6.90
2010,04,09,11,11,6.90
2010,04,09,11,12,6.80
2010,04,09,11,13,6.90
2010,04,09,11,14,6.90
2010,04,09,11,15,6.90
2010,04,09,11,16,6.80
2010,04,09,11,17,6.80
2010,04,09,11,18,6.80
2010,04,09,11,19,6.80
2010,04,09,11,20,6.80
2010,04,09,11,21,6.80
2010,04,09,11,22,6.70
2010,04,09,11,23,6.70
2010,04,09,11,24,6.70
2010,04,09,11,25,6.70
2010,04,09,11,26,6.80
2010,04,09,11,27,6.80
2010,04,09,11,28,6.80
2010,04,09,11,29,6.80
2010,04,09,11,30,6.90
2010,04,09,11,31,6.90
2010,04,09,11,32,7.00
2010,04,09,11,33,7.00
2010,04,09,11,34,7.10
2010,04,09,11,35,7.00
2010,04,09,11,36,7.00
2010,04,09,11,37,7.00
2010,04,09,11,38,7.10
2010,04,09,11,39,7.00
2010,04,09,11,40,7.00
2010,04,09,11,41,7.00
2010,04,09,11,42,7.00
2010,04,09,11,43,7.10
2010,04,09,11,44,7.10
2010,04,09,11,45,7.20
2010,04,09,11,46,7.20
2010,04,09,11,47,7.20
2010,04,09,11,48,7.30
2010,04,09,11,49,7.30
2010,04,09,11,50,7.40
2010,04,09,11,51,7.40
2010,04,09,11,52,7.40
2010,04,09,11,53,7.30
2010,04,09,11,54,7.30
2010,04,09,11,55,7.30
2010,04,09,11,56,7.30
2010,04,09,11,57,7.30
2010,04,09,11,58,7.30
2010,04,09,11,59,7.30
2010,04,09,12,00,7.40
2010,04,09,12,01,7.40
2010,04,09,12,02,7.40
2010,04,09,12,03,7.40
2010,04,09,12,04,7.30
2010,04,09,12,05,7.30
2010,04,09,12,06,7.30
2010,04,09,12,07,7.30
2010,04,09,12,08,7.30
2010,04,09,12,09,7.30
2010,04,09,12,10,7.30
2010,04,09,12,11,7.30
2010,04,09,12,12,7.30
2010,04,09,12,13,7.30
2010,04,09,12,14,7.30
2010,04,09,12,15,7.30
2010,04,09,12,16,7.30
2010,04,09,12,17,7.40
2010,04,09,12,18,7.40
2010,04,09,12,19,7.30
2010,04,09,12,20,7.40
2010,04,09,12,21,7.40
2010,04,09,12,22,7.40
2010,04,09,12,23,7.50
2010,04,09,12,24,7.40
2010,04,09,12,25,7.30
2010,04,09,12,26,7.20
2010,04,09,12,27,7.20
2010,04,09,12,28,7.30
2010,04,09,12,29,7.50
2010,04,09,12,30,7.60
2010,04,09,12,31,7.70
2010,04,09,12,32,7.80
2010,04,09,12,33,7.90
2010,04,09,12,34,7.90
2010,04,09,12,35,7.80
2010,04,09,12,36,7.70
2010,04,09,12,37,7.60
2010,04,09,12,38,7.50
2010,04,09,12,39,7.50
2010,04,09,12,40,7.60
2010,04,09,12,41,7.70
2010,04,09,12,42,7.80
2010,04,09,12,43,7.80
2010,04,09,12,44,7.90
2010,04,09,12,45,7.90
2010,04,09,12,46,8.00
2010,04,09,12,47,8.10
2010,04,09,12,48,8.20
2010,04,09,12,49,8.30
2010,04,09,12,50,8.40
2010,04,09,12,51,8.50
2010,04,09,12,52,8.60
2010,04,09,12,53,8.60
2010,04,09,12,54,8.50
2010,04,09,12,55,8.30
2010,04,09,12,56,8.10
2010,04,09,12,57,8.00
2010,04,09,12,58,8.00
2010,04,09,12,59,7.90
2010,04,09,13,00,7.90
2010,04,09,13,01,7.90
2010,04,09,13,02,8.00
2010,04,09,13,03,8.00
2010,04,09,13,04,8.00
2010,04,09,13,05,8.00
2010,04,09,13,06,8.00
2010,04,09,13,07,8.00
2010,04,09,13,08,8.10
2010,04,09,13,09,8.30
2010,04,09,13,10,8.40
2010,04,09,13,11,8.60
2010,04,09,13,12,8.70
2010,04,09,13,13,8.70
2010,04,09,13,14,8.70
2010,04,09,13,15,8.70
2010,04,09,13,16,8.70
2010,04,09,13,17,8.70
2010,04,09,13,18,8.70
2010,04,09,13,19,8.70
2010,04,09,13,20,8.70
2010,04,09,13,21,8.60
2010,04,09,13,22,8.70
2010,04,09,13,23,8.80
2010,04,09,13,24,9.00
2010,04,09,13,25,9.20
2010,04,09,13,26,9.40
2010,04,09,13,27,9.30
2010,04,09,13,28,9.30
2010,04,09,13,29,9.30
2010,04,09,13,30,9.30
2010,04,09,13,31,9.30
2010,04,09,13,32,9.40
2010,04,09,13,33,9.40
2010,04,09,13,34,9.40
2010,04,09,13,35,9.40
2010,04,09,13,36,9.40
2010,04,09,13,37,9.50
2010,04,09,13,38,9.50
2010,04,09,13,39,9.60
2010,04,09,13,40,9.70
2010,04,09,13,41,9.70
2010,04,09,13,42,9.70
2010,04,09,13,43,9.70
2010,04,09,13,44,9.50
2010,04,09,13,45,9.40
2010,04,09,13,46,9.30
2010,04,09,13,47,9.20
2010,04,09,13,48,9.20
2010,04,09,13,49,9.20
2010,04,09,13,50,9.20
2010,04,09,13,51,9.20
2010,04,09,13,52,9.20
2010,04,09,13,53,9.30
2010,04,09,13,54,9.40
2010,04,09,13,55,9.40
2010,04,09,13,56,9.40
2010,04,09,13,57,9.30
2010,04,09,13,58,9.30
2010,04,09,13,59,9.30
2010,04,09,14,00,9.30
2010,04,09,14,01,9.20
2010,04,09,14,02,9.10
2010,04,09,14,03,9.10
2010,04,09,14,04,9.10
2010,04,09,14,05,9.20
2010,04,09,14,06,9.30
2010,04,09,14,07,9.20
2010,04,09,14,08,9.20
2010,04,09,14,09,9.30
2010,04,09,14,10,9.30
2010,04,09,14,11,9.30
2010,04,09,14,12,9.30
2010,04,09,14,13,9.20
2010,04,09,14,14,9.20
2010,04,09,14,15,9.20
2010,04,09,14,16,9.20
2010,04,09,14,17,9.30
2010,04,09,14,18,9.30
2010,04,09,14,19,9.40
2010,04,09,14,20,9.40
2010,04,09,14,21,9.50
2010,04,09,14,22,9.50
2010,04,09,14,23,9.50
2010,04,09,14,24,9.60
2010,04,09,14,25,9.70
2010,04,09,14,26,9.50
2010,04,09,14,27,9.50
2010,04,09,14,28,9.50
2010,04,09,14,29,9.60
2010,04,09,14,30,9.60
2010,04,09,14,31,9.60
2010,04,09,14,32,9.70
2010,04,09,14,33,9.70
2010,04,09,14,34,9.70
2010,04,09,14,35,9.70
2010,04,09,14,36,9.70
2010,04,09,14,37,9.70
2010,04,09,14,38,9.60
2010,04,09,14,39,9.50
2010,04,09,14,40,9.50
2010,04,09,14,41,9.40
2010,04,09,14,42,9.40
2010,04,09,14,43,9.40
2010,04,09,14,44,9.30
2010,04,09,14,45,9.20
2010,04,09,14,46,9.20
2010,04,09,14,47,9.30
2010,04,09,14,48,9.40
2010,04,09,14,49,9.50
2010,04,09,14,50,9.60
2010,04,09,14,51,9.60
2010,04,09,14,52,9.60
2010,04,09,14,53,9.70
2010,04,09,14,54,9.70
2010,04,09,14,55,9.80
2010,04,09,14,56,9.90
2010,04,09,14,57,9.90
2010,04,09,14,58,10.00
2010,04,09,14,59,10.00
2010,04,09,15,00,9.90
2010,04,09,15,01,9.80
2010,04,09,15,02,9.70
2010,04,09,15,03,9.60
2010,04,09,15,04,9.50
2010,04,09,15,05,9.40
2010,04,09,15,06,9.30
2010,04,09,15,07,9.20
2010,04,09,15,08,9.20
2010,04,09,15,09,9.20
2010,04,09,15,10,9.20
2010,04,09,15,11,9.30
2010,04,09,15,12,9.40
2010,04,09,15,13,9.40
2010,04,09,15,14,9.50
2010,04,09,15,15,9.50
2010,04,09,15,16,9.60
2010,04,09,15,17,9.70
2010,04,09,15,18,9.70
2010,04,09,15,19,9.70
2010,04,09,15,20,9.70
2010,04,09,15,21,9.70
2010,04,09,15,22,9.70
2010,04,09,15,23,9.70
2010,04,09,15,24,9.70
2010,04,09,15,25,9.70
2010,04,09,15,26,9.80
2010,04,09,15,27,9.90
2010,04,09,15,28,9.80
2010,04,09,15,29,9.80
2010,04,09,15,30,9.90
2010,04,09,15,31,9.80
2010,04,09,15,32,9.70
2010,04,09,15,33,9.70
2010,04,09,15,34,9.70
2010,04,09,15,35,9.60
2010,04,09,15,36,9.60
2010,04,09,15,37,9.60
2010,04,09,15,38,9.60
2010,04,09,15,39,9.60
2010,04,09,15,40,9.70
2010,04,09,15,41,9.70
2010,04,09,15,42,9.80
2010,04,09,15,43,9.70
2010,04,09,15,44,9.70
2010,04,09,15,45,9.70
2010,04,09,15,46,9.70
2010,04,09,15,47,9.70
2010,04,09,15,48,9.80
2010,04,09,15,49,9.90
2010,04,09,15,50,9.90
2010,04,09,15,51,9.90
2010,04,09,15,52,9.90
2010,04,09,15,53,9.90
2010,04,09,15,54,9.90
2010,04,09,15,55,9.90
2010,04,09,15,56,9.90
2010,04,09,15,57,9.90
2010,04,09,15,58,9.80
2010,04,09,15,59,9.70
2010,04,09,16,00,9.70
2010,04,09,16,01,9.60
2010,04,09,16,02,9.50
2010,04,09,16,03,9.50
2010,04,09,16,04,9.60
2010,04,09,16,05,9.60
2010,04,09,16,06,9.70
2010,04,09,16,07,9.70
2010,04,09,16,08,9.70
2010,04,09,16,09,9.70
2010,04,09,16,10,9.70
2010,04,09,16,11,9.80
2010,04,09,16,12,9.80
2010,04,09,16,13,9.80
2010,04,09,16,14,9.70
2010,04,09,16,15,9.60
2010,04,09,16,16,9.40
2010,04,09,16,17,9.30
2010,04,09,16,18,9.20
2010,04,09,16,19,9.20
2010,04,09,16,20,9.20
2010,04,09,16,21,9.20
2010,04,09,16,22,9.20
2010,04,09,16,23,9.20
2010,04,09,16,24,9.20
2010,04,09,16,25,9.30
2010,04,09,16,26,9.30
2010,04,09,16,27,9.30
2010,04,09,16,28,9.30
2010,04,09,16,29,9.20
2010,04,09,16,30,9.30
2010,04,09,16,31,9.30
2010,04,09,16,32,9.30
2010,04,09,16,33,9.20
2010,04,09,16,34,9.20
2010,04,09,16,35,9.20
2010,04,09,16,36,9.10
2010,04,09,16,37,9.10
2010,04,09,16,38,9.00
2010,04,09,16,39,8.90
2010,04,09,16,40,8.90
2010,04,09,16,41,9.00
2010,04,09,16,42,9.00
2010,04,09,16,43,9.00
2010,04,09,16,44,9.00
2010,04,09,16,45,9.00
2010,04,09,16,46,9.00
2010,04,09,16,47,9.10
2010,04,09,16,48,9.10
2010,04,09,16,49,9.10
2010,04,09,16,50,9.00
2010,04,09,16,51,9.00
2010,04,09,16,52,9.00
2010,04,09,16,53,9.00
2010,04,09,16,54,9.10
2010,04,09,16,55,9.10
2010,04,09,16,56,9.00
2010,04,09,16,57,9.00
2010,04,09,16,58,8.90
2010,04,09,16,59,9.00
2010,04,09,17,00,8.90
2010,04,09,17,01,8.90
2010,04,09,17,02,9.00
2010,04,09,17,03,9.00
2010,04,09,17,04,9.10
2010,04,09,17,05,9.10
2010,04,09,17,06,9.20
2010,04,09,17,07,9.20
2010,04,09,17,08,9.20
2010,04,09,17,09,9.20
2010,04,09,17,10,9.20
2010,04,09,17,11,9.20
2010,04,09,17,12,9.30
2010,04,09,17,13,9.30
2010,04,09,17,14,9.30
2010,04,09,17,15,9.40
2010,04,09,17,16,9.40
2010,04,09,17,17,9.50
2010,04,09,17,18,9.60
2010,04,09,17,19,9.60
2010,04,09,17,20,9.60
2010,04,09,17,21,9.60
2010,04,09,17,22,9.60
2010,04,09,17,23,9.60
2010,04,09,17,24,9.60
2010,04,09,17,25,9.60
2010,04,09,17,26,9.60
2010,04,09,17,27,9.60
2010,04,09,17,28,9.60
2010,04,09,17,29,9.60
2010,04,09,17,30,9.60
2010,04,09,17,31,9.50
2010,04,09,17,32,9.50
2010,04,09,17,33,9.50
2010,04,09,17,34,9.50
2010,04,09,17,35,9.50
2010,04,09,17,36,9.40
2010,04,09,17,37,9.40
2010,04,09,17,38,9.30
2010,04,09,17,39,9.30
2010,04,09,17,40,9.30
2010,04,09,17,41,9.40
2010,04,09,17,42,9.40
2010,04,09,17,43,9.40
2010,04,09,17,44,9.40
2010,04,09,17,45,9.50
2010,04,09,17,46,9.60
2010,04,09,17,47,9.70
2010,04,09,17,48,9.70
2010,04,09,17,49,9.70
2010,04,09,17,50,9.70
2010,04,09,17,51,9.70
2010,04,09,17,52,9.70
2010,04,09,17,53,9.70
2010,04,09,17,54,9.70
2010,04,09,17,55,9.70
2010,04,09,17,56,9.70
2010,04,09,17,57,9.70
2010,04,09,17,58,9.70
2010,04,09,17,59,9.70
2010,04,09,18,00,9.50
2010,04,09,18,01,9.40
2010,04,09,18,02,9.30
2010,04,09,18,03,9.20
2010,04,09,18,04,9.10
2010,04,09,18,05,9.00
2010,04,09,18,06,8.90